Abbeville, LA

7:24 PM CST on February 24, 2017 (GMT -0600)
Abbeville

Weather History for KIYA - October, 2012

Change the Weather History Date:

Wednesday, October 10, 2012

  Actual Average (K7R4) Record (K7R4)
Temperature  
Mean Temperature 73 °F -  
Max Temperature 87 °F 76 °F 86 °F (1999)
Min Temperature 59 °F 66 °F 50 °F (2000)
Cooling Degree Days 8    
Growing Degree Days 23 (Base 50)    
Moisture  
Dew Point 67 °F    
Average Humidity 84    
Maximum Humidity 100    
Minimum Humidity 50    
Precipitation  
Precipitation 0.00 in - - ()
Sea Level Pressure  
Sea Level Pressure 30.11 in    
Wind  
Wind Speed 1 mph ()    
Max Wind Speed 8 mph    
Max Gust Speed -    
Visibility 8.3 miles    
Events Fog    
Averages and records for this station are not official NWS values.
T = Trace of Precipitation, MM = Missing Value Source: Averaged Metar Reports

Daily Weather History Graph

Daily Weather History Graph

Search for Another Location

Airport or City:

Trip Planner

Search our weather history database for the weather conditions in past years. The results will help you decide how hot, cold, wet, or windy it might be!

Date:

Astronomy

Oct. 10, 2012 Rise Set
Actual Time 7:07 AM CDT 6:42 PM CDT
Civil Twilight 6:43 AM CDT 7:06 PM CDT
Nautical Twilight 6:15 AM CDT 7:34 PM CDT
Astronomical Twilight 5:47 AM CDT 8:01 PM CDT
Moon 2:05 AM CDT (10/10) 3:26 PM CDT (10/10)
Length of Visible Light 12h 23m
Length of Day
11h 35m
Waning Crescent, 27% of the Moon is Illuminated
Oct 10
Waning Crescent
Oct 15
New
Oct 21
First Quarter
Oct 29
Full
Nov 6
Last Quarter

Hourly Weather History & Observations

Time (CDT) Temp. Heat Index Dew Point Humidity Pressure Visibility Wind Dir Wind Speed Gust Speed Precip Events Conditions
12:15 AM 61.3 °F - 61.3 °F 100% 30.05 in 0.5 mi Calm Calm - N/A Fog Fog
12:35 AM 60.3 °F - 60.3 °F 100% 30.05 in 4.0 mi Calm Calm - N/A   Clear
12:55 AM 59.9 °F - 59.9 °F 100% 30.05 in 4.0 mi Calm Calm - N/A   Clear
1:15 AM 60.1 °F - 60.1 °F 100% 30.06 in 2.0 mi Calm Calm - N/A   Clear
1:35 AM 59.7 °F - 59.7 °F 100% 30.06 in 7.0 mi Calm Calm - N/A   Clear
1:55 AM 59.9 °F - 59.9 °F 100% 30.07 in 7.0 mi Calm Calm - N/A   Clear
2:15 AM 59.9 °F - 59.9 °F 100% 30.07 in 5.0 mi Calm Calm - N/A   Clear
2:35 AM 59.2 °F - 59.2 °F 100% 30.08 in 5.0 mi Calm Calm - N/A   Clear
2:55 AM 59.9 °F - 59.9 °F 100% 30.09 in 7.0 mi Calm Calm - N/A   Clear
3:15 AM 60.6 °F - 60.6 °F 100% 30.09 in 5.0 mi Calm Calm - N/A   Mostly Cloudy
3:35 AM 62.2 °F - 62.2 °F 100% 30.09 in 10.0 mi NNE 3.5 mph - N/A   Overcast
3:55 AM 63.5 °F - 63.5 °F 100% 30.09 in 10.0 mi NE 3.5 mph - N/A   Overcast
4:15 AM 63.5 °F - 63.5 °F 100% 30.09 in 7.0 mi Calm Calm - N/A   Overcast
4:35 AM 62.8 °F - 62.8 °F 100% 30.09 in 7.0 mi Calm Calm - N/A   Mostly Cloudy
4:55 AM 62.6 °F - 62.6 °F 100% 30.09 in 7.0 mi Calm Calm - N/A   Scattered Clouds
5:15 AM 63.1 °F - 63.1 °F 100% 30.09 in 7.0 mi Calm Calm - N/A   Mostly Cloudy
5:35 AM 63.9 °F - 63.9 °F 100% 30.10 in 10.0 mi Calm Calm - N/A   Overcast
5:55 AM 64.4 °F - 64.4 °F 100% 30.10 in 10.0 mi Calm Calm - N/A   Overcast
6:15 AM 65.1 °F - 65.1 °F 100% 30.10 in 10.0 mi ESE 3.5 mph - N/A   Overcast
6:35 AM 65.3 °F - 65.1 °F 99% 30.11 in 10.0 mi Calm Calm - N/A   Overcast
6:55 AM 64.6 °F - 64.6 °F 100% 30.11 in 10.0 mi Calm Calm - N/A   Overcast
7:15 AM 64.2 °F - 64.2 °F 100% 30.12 in 10.0 mi Calm Calm - N/A   Overcast
7:55 AM 66.0 °F - 66.0 °F 100% 30.12 in 10.0 mi Calm Calm - N/A   Clear
8:15 AM 68.4 °F - 67.5 °F 97% 30.13 in 10.0 mi Calm Calm - N/A   Clear
8:35 AM 70.5 °F - 68.9 °F 95% 30.13 in 10.0 mi ENE 3.5 mph - N/A   Clear
8:55 AM 72.1 °F - 69.8 °F 92% 30.14 in 10.0 mi East 3.5 mph - N/A   Clear
9:15 AM 74.1 °F - 70.9 °F 90% 30.15 in 10.0 mi ENE 4.6 mph - N/A   Clear
9:35 AM 75.4 °F - 71.1 °F 86% 30.16 in 10.0 mi ENE 3.5 mph - N/A   Clear
9:55 AM 76.3 °F - 70.9 °F 83% 30.16 in 10.0 mi ENE 4.6 mph - N/A   Clear
10:15 AM 77.7 °F - 71.2 °F 80% 30.16 in 10.0 mi ENE 3.5 mph - N/A   Clear
10:35 AM 79.3 °F - 71.6 °F 77% 30.17 in 10.0 mi ENE 3.5 mph - N/A   Clear
10:55 AM 81.0 °F 84.9 °F 71.2 °F 72% 30.17 in 10.0 mi Calm Calm - N/A   Clear
11:15 AM 82.4 °F 86.5 °F 70.3 °F 67% 30.16 in 10.0 mi Calm Calm - N/A   Clear
11:55 AM 83.7 °F 87.2 °F 69.1 °F 61% 30.15 in 10.0 mi Calm Calm - N/A   Clear
12:15 PM 85.1 °F 89.1 °F 69.4 °F 59% 30.15 in 10.0 mi Calm Calm - N/A   Scattered Clouds
12:35 PM 85.6 °F 89.4 °F 68.7 °F 57% 30.14 in 10.0 mi Calm Calm - N/A   Clear
12:55 PM 86.2 °F 89.7 °F 68.2 °F 55% 30.13 in 10.0 mi Calm Calm - N/A   Mostly Cloudy
1:15 PM 83.8 °F 86.7 °F 67.8 °F 58% 30.12 in 10.0 mi North 4.6 mph - N/A   Mostly Cloudy
1:35 PM 84.0 °F 87.3 °F 68.2 °F 59% 30.11 in 10.0 mi Calm Calm - N/A   Scattered Clouds
1:55 PM 87.4 °F 90.8 °F 67.6 °F 52% 30.10 in 10.0 mi East 4.6 mph - N/A   Mostly Cloudy
2:35 PM 84.7 °F 87.9 °F 68.2 °F 57% 30.08 in 10.0 mi NE 4.6 mph - N/A   Mostly Cloudy
2:55 PM 87.4 °F 90.1 °F 66.7 °F 50% 30.08 in 10.0 mi ESE 3.5 mph - N/A   Scattered Clouds
3:15 PM 85.3 °F 87.9 °F 66.7 °F 54% 30.07 in 10.0 mi ENE 4.6 mph - N/A   Scattered Clouds
3:35 PM 87.8 °F 90.7 °F 67.3 °F 50% 30.06 in 10.0 mi NE 3.5 mph - N/A   Clear
3:55 PM 84.6 °F 87.6 °F 67.6 °F 57% 30.06 in 10.0 mi NE 3.5 mph - N/A   Scattered Clouds
4:15 PM 86.7 °F 89.6 °F 66.9 °F 52% 30.06 in 10.0 mi ENE 8.1 mph - N/A   Scattered Clouds
4:35 PM 86.9 °F 89.3 °F 66.0 °F 50% 30.06 in 10.0 mi East 8.1 mph - N/A   Scattered Clouds
4:55 PM 86.9 °F 89.9 °F 67.3 °F 52% 30.06 in 10.0 mi East 6.9 mph - N/A   Scattered Clouds
5:15 PM 85.5 °F 88.2 °F 67.3 °F 54% 30.07 in 10.0 mi East 5.8 mph - N/A   Scattered Clouds
5:35 PM 84.4 °F 87.3 °F 67.6 °F 57% 30.08 in 10.0 mi East 3.5 mph - N/A   Clear
5:55 PM 82.4 °F 85.4 °F 68.0 °F 62% 30.08 in 10.0 mi East 3.5 mph - N/A   Clear
6:35 PM 79.9 °F - 68.4 °F 68% 30.10 in 10.0 mi ESE 3.5 mph - N/A   Clear
6:55 PM 77.7 °F - 69.1 °F 75% 30.10 in 10.0 mi Calm Calm - N/A   Clear
7:15 PM 76.6 °F - 69.4 °F 78% 30.10 in 10.0 mi Calm Calm - N/A   Clear
7:35 PM 73.4 °F - 70.7 °F 91% 30.11 in 10.0 mi SSE 3.5 mph - N/A   Clear
7:55 PM 73.6 °F - 69.8 °F 88% 30.11 in 10.0 mi Calm Calm - N/A   Clear
8:15 PM 72.5 °F - 70.2 °F 92% 30.12 in 10.0 mi Calm Calm - N/A   Clear
8:35 PM 73.4 °F - 71.8 °F 95% 30.12 in 10.0 mi Calm Calm - N/A   Clear
8:55 PM 73.6 °F - 72.3 °F 96% 30.13 in 10.0 mi Calm Calm - N/A   Clear
9:15 PM 71.4 °F - 71.4 °F 100% 30.13 in 10.0 mi Calm Calm - N/A   Clear
9:35 PM 70.3 °F - 70.3 °F 100% 30.13 in 7.0 mi Calm Calm - N/A   Clear
9:55 PM 68.9 °F - 68.9 °F 100% 30.13 in 7.0 mi Calm Calm - N/A   Clear
10:15 PM 69.3 °F - 69.3 °F 100% 30.14 in 4.0 mi Calm Calm - N/A   Clear
10:35 PM 68.7 °F - 68.7 °F 100% 30.14 in 5.0 mi Calm Calm - N/A   Clear
10:55 PM 68.7 °F - 68.7 °F 100% 30.15 in 3.0 mi Calm Calm - N/A   Clear
11:15 PM 68.5 °F - 68.5 °F 100% 30.15 in 0.8 mi Calm Calm - N/A   Mist
11:35 PM 68.2 °F - 68.2 °F 100% 30.15 in 1.0 mi Calm Calm - N/A   Mist
11:55 PM 67.5 °F - 67.5 °F 100% 30.15 in 0.5 mi Calm Calm - N/A Fog Fog